CAPE
nan nan nan nan nan nan nan nan nan nan nan nan nan nan nan nan nan nan nan nan nan nan nan nan nan nan nan 9 15 15 14 16 15 15 14 9 7 7 6 4 4 2 1 0 0 nan nan nan nan nan nan nan nan nan nan nan nan nan nan nan nan nan nan nan nan nan nan nan nan nan nan nan nan nan nan nan 0 0 2 4 4 7 9 10 10 12
nan nan nan nan nan nan nan nan nan nan nan nan nan nan nan nan nan nan nan nan nan nan nan nan nan nan nan 3 13 13 13 14 14 14 12 8 7 7 7 5 5 3 1 0 0 0 0 0 0 0 nan nan nan nan nan nan nan nan nan nan nan nan nan nan nan nan nan nan nan nan nan nan nan nan nan nan nan nan 2 5 5 7 8 9 9 10
nan nan nan nan nan nan nan nan nan nan nan nan nan nan nan nan nan nan nan nan nan nan nan nan nan nan nan nan 10 10 11 12 11 11 9 9 7 7 7 5 5 3 2 1 1 0 0 1 1 1 0 nan nan nan nan nan nan nan nan nan nan nan nan nan nan nan nan nan nan nan nan nan nan nan nan nan nan nan 1 2 2 2 4 5 5 7
nan nan nan nan nan nan nan nan nan nan nan nan nan nan nan nan nan nan nan nan nan nan nan nan nan nan nan nan 0 0 8 8 9 9 7 7 7 7 6 5 5 4 3 1 1 1 1 1 1 2 2 1 0 0 nan nan nan nan nan nan nan nan nan nan nan nan nan nan nan nan nan nan nan nan nan nan nan nan nan 0 0 0 1 2 2 3
nan nan nan nan nan nan nan nan nan nan nan nan nan nan nan nan nan nan nan nan nan nan nan nan nan nan nan nan nan nan 3 6 6 6 7 7 6 6 6 6 6 4 3 3 3 2 2 3 3 5 4 3 1 1 nan nan nan nan nan nan nan nan nan nan nan nan nan nan nan nan nan nan nan nan nan nan nan nan nan nan nan nan 0 0 0 2
nan nan nan nan nan nan nan nan nan nan nan nan nan nan nan nan nan nan nan nan nan nan nan nan nan nan nan nan nan nan 0 3 4 4 5 6 6 6 6 6 6 6 6 4 4 4 4 5 5 6 5 3 1 1 nan nan nan nan nan nan nan nan nan nan nan nan nan nan nan nan nan nan nan nan nan nan nan nan nan nan nan nan 0 0 0 1
nan nan nan nan nan nan nan nan nan nan nan nan nan nan nan nan nan nan nan nan nan nan nan nan nan nan nan nan nan nan nan nan 2 2 2 3 5 5 5 6 6 6 6 6 6 6 5 6 6 5 3 2 0 0 nan nan nan nan nan nan nan nan nan nan nan nan nan nan nan nan nan nan nan nan nan nan nan nan nan nan nan nan 1 1 1 2
nan nan nan nan nan nan nan nan nan nan nan nan nan nan nan nan nan nan nan nan nan nan nan nan nan nan nan nan nan nan nan nan nan nan nan nan nan nan nan 0 0 1 1 2 2 1 1 0 0 nan nan nan nan nan nan nan nan nan nan nan nan nan nan nan nan nan nan nan nan nan nan nan nan nan nan nan nan nan nan nan nan nan 2 3 3 6
nan nan nan nan nan nan nan nan nan nan nan nan nan nan nan nan nan nan nan nan nan nan nan nan nan nan nan nan nan nan nan nan nan nan nan nan nan nan nan nan nan nan nan nan nan nan nan nan nan nan nan nan nan nan nan nan nan nan nan nan nan nan nan nan nan nan nan nan nan nan nan nan nan nan nan nan nan nan nan nan nan nan 1 2 2 7
nan nan nan nan nan nan nan nan nan nan nan nan nan nan nan nan nan nan nan nan nan nan nan nan nan nan nan nan nan nan nan nan nan nan nan nan nan nan nan nan nan nan nan nan nan nan nan nan nan nan nan nan nan nan nan nan nan nan nan nan nan nan nan nan nan nan nan nan nan nan nan nan nan nan nan nan nan nan nan nan nan nan 1 2 2 5
nan nan nan nan nan nan nan nan nan nan nan nan nan nan nan nan nan nan nan nan nan nan nan nan nan nan nan nan nan nan nan nan nan nan nan nan nan nan nan nan nan nan nan nan nan nan nan nan nan nan nan nan nan nan nan nan nan nan nan nan nan nan nan nan nan nan nan nan nan nan nan nan nan nan nan nan nan nan nan nan nan nan 1 1 1 4
nan nan nan nan nan nan nan nan nan nan nan nan nan nan nan nan nan nan nan nan nan nan nan nan nan nan nan nan nan nan nan nan nan nan nan nan nan nan nan nan nan nan nan nan nan nan nan nan nan nan nan nan nan nan nan nan nan nan nan nan nan nan nan nan nan nan nan nan nan nan nan nan nan nan nan nan nan nan nan nan nan 0 1 1 1 3
nan nan nan nan nan nan nan nan nan nan nan nan nan nan nan nan nan nan nan nan nan nan nan nan nan nan nan nan nan nan nan nan nan nan nan nan nan nan nan nan nan nan nan nan nan nan nan nan nan nan nan nan nan nan nan nan nan nan nan nan nan nan nan nan nan nan nan nan nan nan nan nan nan nan nan nan nan nan nan 0 0 1 1 1 1 3
nan nan nan nan nan nan nan nan nan nan nan nan nan nan nan nan nan nan nan nan nan nan nan nan nan nan nan nan nan nan nan nan nan nan nan nan nan nan nan nan nan nan nan nan nan nan nan nan nan nan nan nan nan nan nan nan nan nan nan nan nan nan nan nan nan nan nan nan nan nan nan nan nan nan nan nan nan nan nan 1 1 2 2 2 2 4
nan nan nan nan nan nan nan nan nan nan nan nan nan nan nan nan nan nan nan nan nan nan nan nan nan nan nan nan nan nan nan nan nan nan nan nan nan nan nan nan nan nan nan nan nan nan nan nan nan nan nan nan nan nan nan nan nan nan nan nan nan nan nan nan nan nan nan 1 1 1 1 0 nan nan nan nan nan nan 0 2 2 3 3 3 3 6
nan nan nan nan nan nan nan nan nan nan nan nan nan nan nan nan nan nan nan nan nan nan nan nan nan nan nan nan nan nan nan nan nan nan nan nan nan nan nan nan nan nan nan nan nan nan nan nan nan nan nan nan nan nan nan nan nan nan nan nan nan nan nan nan nan nan 0 2 2 2 2 1 1 1 0 0 0 0 1 2 2 3 4 5 5 8
nan nan nan nan nan nan nan nan nan nan nan nan nan nan nan nan nan nan nan nan nan nan nan nan nan nan nan nan nan nan nan nan nan nan nan nan nan nan nan nan nan nan nan nan nan nan nan nan nan nan nan nan nan nan nan nan nan nan nan nan nan nan nan nan nan nan 0 2 2 2 2 2 1 1 1 1 1 1 2 3 3 4 6 7 7 10
nan nan nan nan nan nan nan nan nan nan nan nan nan nan nan nan nan nan nan nan nan nan nan nan nan nan nan nan nan nan nan nan nan nan nan nan nan nan nan nan nan nan nan nan nan nan nan nan nan nan nan nan nan nan nan nan nan nan nan nan nan nan nan nan nan nan 0 2 3 3 2 2 2 2 2 2 2 2 3 3 3 5 7 8 8 11
nan nan nan nan nan nan nan nan nan nan nan nan nan nan nan nan nan nan nan nan nan nan nan nan nan nan nan nan nan nan nan nan nan nan nan nan nan nan nan nan nan nan nan nan nan nan nan nan nan nan nan nan nan nan nan nan nan nan nan nan nan nan nan nan nan nan 0 2 3 3 3 2 3 3 3 3 3 3 4 6 6 7 8 9 9 11
nan nan nan nan nan nan nan nan nan nan nan nan nan nan nan nan nan nan nan nan nan nan nan nan nan nan nan nan nan nan nan nan nan nan nan nan nan nan nan nan nan nan nan nan nan nan nan nan nan nan nan nan nan nan nan nan nan nan nan nan nan nan nan nan nan 0 0 1 3 3 3 3 3 3 3 4 4 4 5 6 6 8 9 10 10 10
nan nan nan nan nan nan nan nan nan nan nan nan nan nan nan nan nan nan nan nan nan nan nan nan nan nan nan nan nan nan nan nan nan nan nan nan nan nan nan nan nan nan nan nan nan nan nan nan nan nan nan nan nan nan nan nan nan nan nan nan nan nan nan 0 0 0 0 1 1 1 3 3 4 4 4 4 4 4 4 6 6 7 7 8 8 9
nan nan nan nan nan nan nan nan nan nan nan nan nan nan nan nan nan nan nan nan nan nan nan nan nan nan nan nan nan nan nan nan nan nan nan nan nan nan nan nan nan nan nan nan nan nan nan nan nan nan nan nan nan nan nan nan nan nan nan nan nan nan nan nan nan 0 0 0 1 1 1 3 4 4 4 4 4 4 4 4 4 5 6 6 6 7
nan nan nan nan nan nan nan nan nan nan nan nan nan nan nan nan nan nan nan nan nan nan nan nan nan nan nan nan nan nan nan nan nan nan nan nan nan nan nan nan nan nan nan nan nan nan nan nan nan nan nan nan nan nan nan nan nan nan nan nan nan nan nan nan nan nan 0 0 0 0 1 2 3 3 4 4 3 3 4 4 4 4 5 6 6 7
nan nan nan nan nan nan nan nan nan nan nan nan nan nan nan nan nan nan nan nan nan nan nan nan nan nan nan nan nan nan nan nan nan nan nan nan nan nan nan nan nan nan nan nan nan nan nan nan nan nan nan nan nan nan nan nan nan nan nan nan nan nan nan 0 0 0 0 0 0 0 1 3 4 4 4 4 4 4 4 4 4 5 5 6 6 7
nan nan nan nan nan nan nan nan nan nan nan nan nan nan nan nan nan nan nan nan nan nan nan nan nan nan nan nan nan nan nan nan nan nan nan nan nan nan nan nan nan nan nan nan nan nan nan nan nan nan nan nan nan nan nan nan nan nan nan nan nan nan 0 0 0 0 0 0 1 1 2 3 4 4 5 5 5 5 6 5 5 6 6 7 7 6
nan nan nan nan nan nan nan nan nan nan nan nan nan nan nan nan nan nan nan nan nan nan nan nan nan nan nan nan nan nan nan nan nan nan nan nan nan nan nan nan nan nan nan nan nan nan nan nan nan nan nan nan nan nan nan nan nan nan nan nan nan nan 1 0 0 0 0 0 0 0 1 2 2 2 2 3 3 3 4 4 4 4 5 4 4 4
nan nan nan nan nan nan nan nan nan nan nan nan nan nan nan nan nan nan nan nan nan nan nan nan nan nan nan nan nan nan nan nan nan nan nan nan nan nan nan nan nan nan nan nan nan nan nan nan nan nan nan nan nan nan nan nan nan nan nan nan nan nan 0 0 0 0 nan nan nan nan nan nan 0 0 0 1 1 1 2 2 2 2 2 2 2 2
nan nan nan nan nan nan nan nan nan nan nan nan nan nan nan nan nan nan nan nan nan nan nan nan nan nan nan nan nan nan nan nan nan nan nan nan nan nan nan nan nan nan nan nan nan nan nan nan nan nan nan nan nan nan nan nan nan nan nan nan nan nan nan nan nan nan nan nan nan nan nan nan nan nan nan nan 0 0 0 1 1 1 1 nan nan nan
1 nan 0 0 0 0 0 0 0 0 nan nan nan nan nan nan nan nan nan nan nan nan nan nan nan nan nan nan nan nan nan nan nan nan nan nan nan nan nan nan nan nan nan nan nan nan nan nan nan nan nan nan nan nan nan nan nan nan nan nan nan nan nan nan nan nan nan nan nan nan nan nan nan nan nan nan 0 0 0 1 1 1 0 nan nan nan
nan nan nan 0 0 nan nan nan nan nan 0 nan nan nan nan nan nan nan nan nan nan nan nan nan nan nan nan nan nan nan nan nan nan nan nan nan nan nan nan nan nan nan nan nan nan nan nan nan nan nan nan nan nan nan nan nan nan nan nan nan nan nan nan nan nan nan nan nan nan nan nan nan nan nan nan 0 0 0 1 1 1 0 nan nan nan nan
nan nan nan nan nan nan nan nan nan nan nan nan nan nan nan nan nan nan nan nan nan nan nan nan nan nan nan nan nan nan nan nan nan nan nan nan nan nan nan nan nan nan nan nan nan nan nan nan nan nan nan nan nan nan nan nan nan nan nan nan nan nan nan nan nan nan nan nan nan nan nan nan nan nan nan 0 0 0 1 1 1 nan nan nan nan nan
nan nan nan nan nan nan nan nan nan nan nan nan nan nan nan nan nan nan nan nan nan nan nan nan nan nan nan nan nan nan nan nan nan nan nan nan nan nan nan nan nan nan nan nan nan nan nan nan nan nan nan nan nan nan nan nan nan nan nan nan nan nan nan nan nan nan nan nan nan nan nan nan nan nan nan nan nan nan nan nan nan nan nan nan nan nan
nan nan nan nan nan nan nan nan nan nan nan nan nan nan nan nan nan nan nan nan nan nan nan nan nan nan nan nan nan nan nan nan nan nan nan nan nan nan nan nan nan nan nan nan nan nan nan nan nan nan nan nan nan nan nan nan nan nan nan nan nan nan nan nan nan nan nan nan nan nan nan nan nan nan nan nan nan nan nan nan nan nan nan nan nan nan
nan nan nan nan nan nan nan nan nan nan nan nan nan nan nan nan nan nan nan nan nan nan nan nan nan nan nan nan nan nan nan nan nan nan nan nan nan nan nan nan nan nan nan nan nan nan nan nan nan nan nan nan nan nan nan nan nan nan nan nan nan nan nan nan nan nan nan nan nan nan nan nan nan nan nan nan nan nan nan nan nan nan nan nan nan nan
nan nan nan nan nan nan nan nan nan nan nan nan nan nan nan nan nan nan nan nan nan nan nan nan nan nan nan nan nan nan nan nan nan nan nan nan nan nan nan nan nan nan nan nan nan nan nan nan nan nan nan nan nan nan nan nan nan nan nan nan nan nan nan nan nan nan nan nan nan nan nan nan nan nan nan nan nan nan nan nan nan nan nan 1 1 nan
nan nan nan nan nan nan nan nan nan nan nan nan nan nan nan nan nan nan nan nan nan nan nan nan nan nan nan nan nan nan nan nan nan nan nan nan nan nan nan nan nan nan nan nan nan nan nan nan nan nan nan nan nan nan nan nan nan nan nan nan nan nan nan nan nan nan nan nan nan nan nan nan nan nan nan nan nan nan nan nan nan nan nan 0 0 0
nan nan nan nan nan nan nan nan nan nan nan nan nan nan nan nan nan nan nan nan nan nan nan nan nan nan nan nan nan nan nan nan nan nan nan nan nan nan nan nan nan nan nan nan nan nan nan nan nan nan nan nan nan nan nan nan nan nan nan nan nan nan nan nan nan nan nan nan nan nan nan nan nan nan nan nan nan nan nan 0 0 nan nan nan nan nan
nan nan nan nan nan nan nan nan nan nan nan nan nan nan nan nan nan nan nan nan nan nan nan nan nan nan nan nan nan nan nan nan nan nan nan nan nan nan nan nan nan nan nan nan nan nan nan nan nan nan nan nan nan nan nan nan nan nan nan nan nan nan nan nan nan nan nan nan nan nan nan nan nan nan nan nan nan nan nan nan nan nan nan nan nan nan
nan nan nan nan nan nan nan nan nan nan nan nan nan nan nan nan nan nan nan nan nan nan nan nan nan nan nan nan nan nan nan nan nan nan nan nan nan nan nan nan nan nan nan nan nan nan nan nan nan nan nan nan nan nan nan nan nan nan nan nan nan nan nan nan nan nan nan nan nan nan nan nan nan nan nan nan nan nan nan nan nan nan nan nan nan nan
nan nan nan nan nan nan nan nan nan nan nan nan nan nan nan nan nan nan nan nan nan nan nan nan nan nan nan nan nan nan nan nan nan nan nan nan nan nan nan nan nan nan nan nan nan nan nan nan nan nan nan nan nan nan nan nan nan nan nan nan nan nan nan nan nan nan nan nan nan nan nan nan nan nan nan nan nan nan nan nan nan nan nan nan nan nan
nan nan nan nan nan nan nan nan nan nan nan nan nan nan nan nan nan nan nan nan nan nan nan nan nan nan nan nan nan nan nan nan nan nan nan nan nan nan nan nan nan nan nan nan nan nan nan nan nan nan nan nan nan nan nan nan nan nan nan nan nan nan nan nan nan nan nan nan nan nan nan nan nan nan nan nan nan nan nan nan nan nan nan nan nan nan
nan nan nan nan nan nan nan nan nan nan nan nan nan nan nan nan nan nan nan nan nan nan nan nan nan nan nan nan nan nan nan nan nan nan nan nan nan nan nan nan nan nan nan nan nan nan nan nan nan nan nan nan nan nan nan nan nan nan nan nan nan nan nan nan nan nan nan nan nan nan nan nan nan nan nan nan nan nan nan nan nan nan nan nan nan nan
nan nan nan nan nan nan nan nan nan nan nan nan nan nan nan nan nan nan nan nan nan nan nan nan nan nan nan nan nan nan nan nan nan nan nan nan nan nan nan nan nan nan nan nan nan nan nan nan nan nan nan nan nan nan nan nan nan nan nan nan nan nan nan nan nan nan nan nan nan nan nan nan nan nan nan nan nan nan nan nan nan nan nan nan nan nan
nan nan nan nan nan nan nan nan nan nan nan nan nan nan nan nan nan nan nan nan nan nan nan nan nan nan nan nan nan nan nan nan nan nan nan nan nan nan nan nan nan nan nan nan nan nan nan nan nan nan nan nan nan nan nan nan nan nan nan nan nan nan nan nan nan nan nan nan nan nan nan nan nan nan nan nan nan nan nan nan nan nan nan nan nan nan
nan nan nan nan nan nan nan nan nan nan nan nan nan nan nan nan nan nan nan nan nan nan nan nan nan nan nan nan nan nan nan nan nan nan nan nan nan nan nan nan nan nan nan nan nan nan nan nan nan nan nan nan nan nan nan nan nan nan nan nan nan nan nan nan nan nan nan nan nan nan nan nan nan nan nan nan nan nan nan nan nan nan nan nan nan nan
nan nan nan nan nan nan nan nan nan nan nan nan nan nan nan nan nan nan nan nan nan nan nan nan nan nan nan nan nan nan nan nan nan nan nan nan nan nan nan nan nan nan nan nan nan nan nan nan nan nan nan nan nan nan nan nan nan nan nan nan nan nan nan nan nan nan nan nan nan nan nan nan nan nan nan nan nan nan nan nan nan nan nan nan nan nan
nan nan nan nan nan nan nan nan nan nan nan nan nan nan nan nan nan nan nan nan nan nan nan nan nan nan nan nan nan nan nan nan nan nan nan nan nan nan nan nan nan nan nan nan nan nan nan nan nan nan nan nan nan nan nan nan nan nan nan nan nan nan nan nan nan nan nan nan nan nan nan nan nan nan nan nan nan nan nan nan nan nan nan nan nan nan
nan nan nan nan nan nan nan nan nan nan nan nan nan nan nan nan nan nan nan nan nan nan nan nan nan nan nan nan nan nan nan nan nan nan nan nan nan nan nan nan nan nan nan nan nan nan nan nan nan nan nan nan nan nan nan nan nan nan nan nan nan nan nan nan nan nan nan nan nan nan nan nan nan nan nan nan nan nan nan nan nan nan nan nan nan nan
nan nan nan nan nan nan nan nan nan nan nan nan nan nan nan nan nan nan nan nan nan nan nan nan nan nan nan nan nan nan nan nan nan nan nan nan nan nan nan nan nan nan nan nan nan nan nan nan nan nan nan nan nan nan nan nan nan nan nan nan nan nan nan nan nan nan nan nan nan nan nan nan nan nan nan nan nan nan nan nan nan nan nan nan nan nan
nan nan nan nan nan nan nan nan nan nan nan nan nan nan nan nan nan nan nan nan nan nan nan nan nan nan nan nan nan nan nan nan nan nan nan nan nan nan nan nan nan nan nan 0 0 nan nan 1 1 3 5 1 nan nan nan nan nan nan nan nan nan nan nan nan nan nan nan nan nan nan nan nan nan nan nan nan nan nan nan nan nan nan nan nan nan nan
nan nan nan nan nan nan nan nan nan nan nan nan nan nan nan nan nan nan nan nan nan nan nan nan nan nan nan nan nan nan nan nan nan nan nan nan nan nan nan nan nan nan nan nan nan nan nan nan nan nan 0 14 1 1 nan nan nan nan nan nan nan nan nan nan nan nan nan nan nan nan nan nan nan nan nan nan nan nan nan nan nan nan nan nan nan nan
CIN
nan nan nan nan nan nan nan nan nan nan nan nan nan nan nan nan nan nan nan nan nan nan nan nan nan nan nan -1 -1 -1 -0 -0 -0 -0 -0 -0 -0 -0 -0 -0 -0 -0 -0 -0 -0 nan nan nan nan nan nan nan nan nan nan nan nan nan nan nan nan nan nan nan nan nan nan nan nan nan nan nan nan nan nan nan -0 -0 -0 -0 -0 -0 -0 -0 -0 -0
nan nan nan nan nan nan nan nan nan nan nan nan nan nan nan nan nan nan nan nan nan nan nan nan nan nan nan -5 -0 -0 -0 -0 -0 -0 -0 -0 -0 -0 -0 -0 -0 -0 -0 -0 -0 -0 -0 -0 -0 -0 nan nan nan nan nan nan nan nan nan nan nan nan nan nan nan nan nan nan nan nan nan nan nan nan nan nan nan nan -0 -0 -0 -0 -0 -0 -0 -0
nan nan nan nan nan nan nan nan nan nan nan nan nan nan nan nan nan nan nan nan nan nan nan nan nan nan nan nan -0 -0 -0 -0 -0 -0 -0 -0 -0 -0 -0 -0 -0 -0 -0 -0 -0 -0 -0 -0 -0 -0 -0 nan nan nan nan nan nan nan nan nan nan nan nan nan nan nan nan nan nan nan nan nan nan nan nan nan nan nan -0 -0 -0 -0 -0 -0 -0 -0
nan nan nan nan nan nan nan nan nan nan nan nan nan nan nan nan nan nan nan nan nan nan nan nan nan nan nan nan -8 -8 -0 -0 -0 -0 -0 -0 -0 -0 -0 -0 -0 -0 -0 -0 -0 -0 -0 -0 -0 -0 -0 -0 -0 -0 nan nan nan nan nan nan nan nan nan nan nan nan nan nan nan nan nan nan nan nan nan nan nan nan nan -0 -0 -0 -0 -0 -0 -0
nan nan nan nan nan nan nan nan nan nan nan nan nan nan nan nan nan nan nan nan nan nan nan nan nan nan nan nan nan nan -2 -0 -0 -0 -0 -0 -0 -0 -0 -0 -0 -0 -0 -0 -0 -0 -0 -0 -0 -0 -0 -0 -0 -0 nan nan nan nan nan nan nan nan nan nan nan nan nan nan nan nan nan nan nan nan nan nan nan nan nan nan nan nan -0 -0 -0 -0
nan nan nan nan nan nan nan nan nan nan nan nan nan nan nan nan nan nan nan nan nan nan nan nan nan nan nan nan nan nan -8 -0 -0 -0 -0 -0 -0 -0 -0 -0 -0 -0 -0 -0 -0 -0 -0 -0 -0 -0 -0 -0 -0 -0 nan nan nan nan nan nan nan nan nan nan nan nan nan nan nan nan nan nan nan nan nan nan nan nan nan nan nan nan -0 -0 -0 -0
nan nan nan nan nan nan nan nan nan nan nan nan nan nan nan nan nan nan nan nan nan nan nan nan nan nan nan nan nan nan nan nan -0 -0 -0 -0 -0 -0 -0 -0 -0 -0 -0 -0 -0 -0 -0 -0 -0 -0 -0 -0 -0 -0 nan nan nan nan nan nan nan nan nan nan nan nan nan nan nan nan nan nan nan nan nan nan nan nan nan nan nan nan -0 -0 -0 -0
nan nan nan nan nan nan nan nan nan nan nan nan nan nan nan nan nan nan nan nan nan nan nan nan nan nan nan nan nan nan nan nan nan nan nan nan nan nan nan -0 -0 -0 -0 -0 -0 -0 -0 -0 -0 nan nan nan nan nan nan nan nan nan nan nan nan nan nan nan nan nan nan nan nan nan nan nan nan nan nan nan nan nan nan nan nan nan -0 -0 -0 -0
nan nan nan nan nan nan nan nan nan nan nan nan nan nan nan nan nan nan nan nan nan nan nan nan nan nan nan nan nan nan nan nan nan nan nan nan nan nan nan nan nan nan nan nan nan nan nan nan nan nan nan nan nan nan nan nan nan nan nan nan nan nan nan nan nan nan nan nan nan nan nan nan nan nan nan nan nan nan nan nan nan nan -0 -0 -0 -0
nan nan nan nan nan nan nan nan nan nan nan nan nan nan nan nan nan nan nan nan nan nan nan nan nan nan nan nan nan nan nan nan nan nan nan nan nan nan nan nan nan nan nan nan nan nan nan nan nan nan nan nan nan nan nan nan nan nan nan nan nan nan nan nan nan nan nan nan nan nan nan nan nan nan nan nan nan nan nan nan nan nan -0 -0 -0 -0
nan nan nan nan nan nan nan nan nan nan nan nan nan nan nan nan nan nan nan nan nan nan nan nan nan nan nan nan nan nan nan nan nan nan nan nan nan nan nan nan nan nan nan nan nan nan nan nan nan nan nan nan nan nan nan nan nan nan nan nan nan nan nan nan nan nan nan nan nan nan nan nan nan nan nan nan nan nan nan nan nan nan -0 -0 -0 -0
nan nan nan nan nan nan nan nan nan nan nan nan nan nan nan nan nan nan nan nan nan nan nan nan nan nan nan nan nan nan nan nan nan nan nan nan nan nan nan nan nan nan nan nan nan nan nan nan nan nan nan nan nan nan nan nan nan nan nan nan nan nan nan nan nan nan nan nan nan nan nan nan nan nan nan nan nan nan nan nan nan -0 -0 -0 -0 -0
nan nan nan nan nan nan nan nan nan nan nan nan nan nan nan nan nan nan nan nan nan nan nan nan nan nan nan nan nan nan nan nan nan nan nan nan nan nan nan nan nan nan nan nan nan nan nan nan nan nan nan nan nan nan nan nan nan nan nan nan nan nan nan nan nan nan nan nan nan nan nan nan nan nan nan nan nan nan nan -0 -0 -0 -0 -0 -0 -0
nan nan nan nan nan nan nan nan nan nan nan nan nan nan nan nan nan nan nan nan nan nan nan nan nan nan nan nan nan nan nan nan nan nan nan nan nan nan nan nan nan nan nan nan nan nan nan nan nan nan nan nan nan nan nan nan nan nan nan nan nan nan nan nan nan nan nan nan nan nan nan nan nan nan nan nan nan nan nan -0 -0 -0 -0 -0 -0 -0
nan nan nan nan nan nan nan nan nan nan nan nan nan nan nan nan nan nan nan nan nan nan nan nan nan nan nan nan nan nan nan nan nan nan nan nan nan nan nan nan nan nan nan nan nan nan nan nan nan nan nan nan nan nan nan nan nan nan nan nan nan nan nan nan nan nan nan -0 -0 -0 -0 -0 nan nan nan nan nan nan -0 -0 -0 -0 -0 -0 -0 -0
nan nan nan nan nan nan nan nan nan nan nan nan nan nan nan nan nan nan nan nan nan nan nan nan nan nan nan nan nan nan nan nan nan nan nan nan nan nan nan nan nan nan nan nan nan nan nan nan nan nan nan nan nan nan nan nan nan nan nan nan nan nan nan nan nan nan -0 -0 -0 -0 -0 -0 -0 -0 -0 -0 -0 -0 -0 -0 -0 -0 -0 -0 -0 -0
nan nan nan nan nan nan nan nan nan nan nan nan nan nan nan nan nan nan nan nan nan nan nan nan nan nan nan nan nan nan nan nan nan nan nan nan nan nan nan nan nan nan nan nan nan nan nan nan nan nan nan nan nan nan nan nan nan nan nan nan nan nan nan nan nan nan -0 -0 -0 -0 -0 -0 -0 -0 -0 -0 -0 -0 -0 -0 -0 -0 -0 -0 -0 -0
nan nan nan nan nan nan nan nan nan nan nan nan nan nan nan nan nan nan nan nan nan nan nan nan nan nan nan nan nan nan nan nan nan nan nan nan nan nan nan nan nan nan nan nan nan nan nan nan nan nan nan nan nan nan nan nan nan nan nan nan nan nan nan nan nan nan -0 -0 -0 -0 -0 -0 -0 -0 -0 -0 -0 -0 -0 -0 -0 -0 -0 -0 -0 -0
nan nan nan nan nan nan nan nan nan nan nan nan nan nan nan nan nan nan nan nan nan nan nan nan nan nan nan nan nan nan nan nan nan nan nan nan nan nan nan nan nan nan nan nan nan nan nan nan nan nan nan nan nan nan nan nan nan nan nan nan nan nan nan nan nan nan -0 -0 -0 -0 -0 -0 -0 -0 -0 -0 -0 -0 -0 -0 -0 -0 -0 -0 -0 -0
nan nan nan nan nan nan nan nan nan nan nan nan nan nan nan nan nan nan nan nan nan nan nan nan nan nan nan nan nan nan nan nan nan nan nan nan nan nan nan nan nan nan nan nan nan nan nan nan nan nan nan nan nan nan nan nan nan nan nan nan nan nan nan nan nan -0 -0 -0 -0 -0 -0 -0 -0 -0 -0 -0 -0 -0 -0 -0 -0 -0 -0 -0 -0 -0
nan nan nan nan nan nan nan nan nan nan nan nan nan nan nan nan nan nan nan nan nan nan nan nan nan nan nan nan nan nan nan nan nan nan nan nan nan nan nan nan nan nan nan nan nan nan nan nan nan nan nan nan nan nan nan nan nan nan nan nan nan nan nan -0 -0 -0 -0 -0 -0 -0 -0 -0 -0 -0 -0 -0 -0 -0 -0 -0 -0 -0 -0 -0 -0 -0
nan nan nan nan nan nan nan nan nan nan nan nan nan nan nan nan nan nan nan nan nan nan nan nan nan nan nan nan nan nan nan nan nan nan nan nan nan nan nan nan nan nan nan nan nan nan nan nan nan nan nan nan nan nan nan nan nan nan nan nan nan nan nan nan nan -0 -0 -0 -0 -0 -0 -0 -0 -0 -0 -0 -0 -0 -0 -0 -0 -0 -0 -0 -0 -0
nan nan nan nan nan nan nan nan nan nan nan nan nan nan nan nan nan nan nan nan nan nan nan nan nan nan nan nan nan nan nan nan nan nan nan nan nan nan nan nan nan nan nan nan nan nan nan nan nan nan nan nan nan nan nan nan nan nan nan nan nan nan nan nan nan nan -0 -0 -0 -0 -0 -0 -0 -0 -0 -0 -0 -0 -0 -0 -0 -0 -0 -0 -0 -0
nan nan nan nan nan nan nan nan nan nan nan nan nan nan nan nan nan nan nan nan nan nan nan nan nan nan nan nan nan nan nan nan nan nan nan nan nan nan nan nan nan nan nan nan nan nan nan nan nan nan nan nan nan nan nan nan nan nan nan nan nan nan nan -0 -0 -0 -0 -0 -0 -0 -0 -0 -0 -0 -0 -0 -0 -0 -0 -0 -0 -0 -0 -0 -0 -0
nan nan nan nan nan nan nan nan nan nan nan nan nan nan nan nan nan nan nan nan nan nan nan nan nan nan nan nan nan nan nan nan nan nan nan nan nan nan nan nan nan nan nan nan nan nan nan nan nan nan nan nan nan nan nan nan nan nan nan nan nan nan -0 -0 -0 -0 -0 -0 -0 -0 -0 -0 -0 -0 -0 -0 -0 -0 -0 -0 -0 -0 -0 -0 -0 -0
nan nan nan nan nan nan nan nan nan nan nan nan nan nan nan nan nan nan nan nan nan nan nan nan nan nan nan nan nan nan nan nan nan nan nan nan nan nan nan nan nan nan nan nan nan nan nan nan nan nan nan nan nan nan nan nan nan nan nan nan nan nan -0 -0 -0 -0 -0 -0 -0 -0 -0 -0 -0 -0 -0 -0 -0 -0 -0 -0 -0 -0 -0 -0 -0 -0
nan nan nan nan nan nan nan nan nan nan nan nan nan nan nan nan nan nan nan nan nan nan nan nan nan nan nan nan nan nan nan nan nan nan nan nan nan nan nan nan nan nan nan nan nan nan nan nan nan nan nan nan nan nan nan nan nan nan nan nan nan nan -0 -0 -0 -0 nan nan nan nan nan nan -0 -0 -0 -0 -0 -0 -0 -0 -0 -0 -0 -0 -0 -0
nan nan nan nan nan nan nan nan nan nan nan nan nan nan nan nan nan nan nan nan nan nan nan nan nan nan nan nan nan nan nan nan nan nan nan nan nan nan nan nan nan nan nan nan nan nan nan nan nan nan nan nan nan nan nan nan nan nan nan nan nan nan nan nan nan nan nan nan nan nan nan nan nan nan nan nan -0 -0 -0 -0 -0 -0 -0 nan nan nan
-0 nan -0 -0 -0 -0 -0 -0 -0 -0 nan nan nan nan nan nan nan nan nan nan nan nan nan nan nan nan nan nan nan nan nan nan nan nan nan nan nan nan nan nan nan nan nan nan nan nan nan nan nan nan nan nan nan nan nan nan nan nan nan nan nan nan nan nan nan nan nan nan nan nan nan nan nan nan nan nan -0 -0 -0 -0 -0 -0 -8 nan nan nan
nan nan nan -0 -0 nan nan nan nan nan -0 nan nan nan nan nan nan nan nan nan nan nan nan nan nan nan nan nan nan nan nan nan nan nan nan nan nan nan nan nan nan nan nan nan nan nan nan nan nan nan nan nan nan nan nan nan nan nan nan nan nan nan nan nan nan nan nan nan nan nan nan nan nan nan nan -0 -0 -0 -0 -0 -0 -10 nan nan nan nan
nan nan nan nan nan nan nan nan nan nan nan nan nan nan nan nan nan nan nan nan nan nan nan nan nan nan nan nan nan nan nan nan nan nan nan nan nan nan nan nan nan nan nan nan nan nan nan nan nan nan nan nan nan nan nan nan nan nan nan nan nan nan nan nan nan nan nan nan nan nan nan nan nan nan nan -0 -0 -0 -0 -0 -0 nan nan nan nan nan
nan nan nan nan nan nan nan nan nan nan nan nan nan nan nan nan nan nan nan nan nan nan nan nan nan nan nan nan nan nan nan nan nan nan nan nan nan nan nan nan nan nan nan nan nan nan nan nan nan nan nan nan nan nan nan nan nan nan nan nan nan nan nan nan nan nan nan nan nan nan nan nan nan nan nan nan nan nan nan nan nan nan nan nan nan nan
nan nan nan nan nan nan nan nan nan nan nan nan nan nan nan nan nan nan nan nan nan nan nan nan nan nan nan nan nan nan nan nan nan nan nan nan nan nan nan nan nan nan nan nan nan nan nan nan nan nan nan nan nan nan nan nan nan nan nan nan nan nan nan nan nan nan nan nan nan nan nan nan nan nan nan nan nan nan nan nan nan nan nan nan nan nan
nan nan nan nan nan nan nan nan nan nan nan nan nan nan nan nan nan nan nan nan nan nan nan nan nan nan nan nan nan nan nan nan nan nan nan nan nan nan nan nan nan nan nan nan nan nan nan nan nan nan nan nan nan nan nan nan nan nan nan nan nan nan nan nan nan nan nan nan nan nan nan nan nan nan nan nan nan nan nan nan nan nan nan nan nan nan
nan nan nan nan nan nan nan nan nan nan nan nan nan nan nan nan nan nan nan nan nan nan nan nan nan nan nan nan nan nan nan nan nan nan nan nan nan nan nan nan nan nan nan nan nan nan nan nan nan nan nan nan nan nan nan nan nan nan nan nan nan nan nan nan nan nan nan nan nan nan nan nan nan nan nan nan nan nan nan nan nan nan nan -0 -0 nan
nan nan nan nan nan nan nan nan nan nan nan nan nan nan nan nan nan nan nan nan nan nan nan nan nan nan nan nan nan nan nan nan nan nan nan nan nan nan nan nan nan nan nan nan nan nan nan nan nan nan nan nan nan nan nan nan nan nan nan nan nan nan nan nan nan nan nan nan nan nan nan nan nan nan nan nan nan nan nan nan nan nan nan -0 -0 -1
nan nan nan nan nan nan nan nan nan nan nan nan nan nan nan nan nan nan nan nan nan nan nan nan nan nan nan nan nan nan nan nan nan nan nan nan nan nan nan nan nan nan nan nan nan nan nan nan nan nan nan nan nan nan nan nan nan nan nan nan nan nan nan nan nan nan nan nan nan nan nan nan nan nan nan nan nan nan nan -0 -0 nan nan nan nan nan
nan nan nan nan nan nan nan nan nan nan nan nan nan nan nan nan nan nan nan nan nan nan nan nan nan nan nan nan nan nan nan nan nan nan nan nan nan nan nan nan nan nan nan nan nan nan nan nan nan nan nan nan nan nan nan nan nan nan nan nan nan nan nan nan nan nan nan nan nan nan nan nan nan nan nan nan nan nan nan nan nan nan nan nan nan nan
nan nan nan nan nan nan nan nan nan nan nan nan nan nan nan nan nan nan nan nan nan nan nan nan nan nan nan nan nan nan nan nan nan nan nan nan nan nan nan nan nan nan nan nan nan nan nan nan nan nan nan nan nan nan nan nan nan nan nan nan nan nan nan nan nan nan nan nan nan nan nan nan nan nan nan nan nan nan nan nan nan nan nan nan nan nan
nan nan nan nan nan nan nan nan nan nan nan nan nan nan nan nan nan nan nan nan nan nan nan nan nan nan nan nan nan nan nan nan nan nan nan nan nan nan nan nan nan nan nan nan nan nan nan nan nan nan nan nan nan nan nan nan nan nan nan nan nan nan nan nan nan nan nan nan nan nan nan nan nan nan nan nan nan nan nan nan nan nan nan nan nan nan
nan nan nan nan nan nan nan nan nan nan nan nan nan nan nan nan nan nan nan nan nan nan nan nan nan nan nan nan nan nan nan nan nan nan nan nan nan nan nan nan nan nan nan nan nan nan nan nan nan nan nan nan nan nan nan nan nan nan nan nan nan nan nan nan nan nan nan nan nan nan nan nan nan nan nan nan nan nan nan nan nan nan nan nan nan nan
nan nan nan nan nan nan nan nan nan nan nan nan nan nan nan nan nan nan nan nan nan nan nan nan nan nan nan nan nan nan nan nan nan nan nan nan nan nan nan nan nan nan nan nan nan nan nan nan nan nan nan nan nan nan nan nan nan nan nan nan nan nan nan nan nan nan nan nan nan nan nan nan nan nan nan nan nan nan nan nan nan nan nan nan nan nan
nan nan nan nan nan nan nan nan nan nan nan nan nan nan nan nan nan nan nan nan nan nan nan nan nan nan nan nan nan nan nan nan nan nan nan nan nan nan nan nan nan nan nan nan nan nan nan nan nan nan nan nan nan nan nan nan nan nan nan nan nan nan nan nan nan nan nan nan nan nan nan nan nan nan nan nan nan nan nan nan nan nan nan nan nan nan
nan nan nan nan nan nan nan nan nan nan nan nan nan nan nan nan nan nan nan nan nan nan nan nan nan nan nan nan nan nan nan nan nan nan nan nan nan nan nan nan nan nan nan nan nan nan nan nan nan nan nan nan nan nan nan nan nan nan nan nan nan nan nan nan nan nan nan nan nan nan nan nan nan nan nan nan nan nan nan nan nan nan nan nan nan nan
nan nan nan nan nan nan nan nan nan nan nan nan nan nan nan nan nan nan nan nan nan nan nan nan nan nan nan nan nan nan nan nan nan nan nan nan nan nan nan nan nan nan nan nan nan nan nan nan nan nan nan nan nan nan nan nan nan nan nan nan nan nan nan nan nan nan nan nan nan nan nan nan nan nan nan nan nan nan nan nan nan nan nan nan nan nan
nan nan nan nan nan nan nan nan nan nan nan nan nan nan nan nan nan nan nan nan nan nan nan nan nan nan nan nan nan nan nan nan nan nan nan nan nan nan nan nan nan nan nan nan nan nan nan nan nan nan nan nan nan nan nan nan nan nan nan nan nan nan nan nan nan nan nan nan nan nan nan nan nan nan nan nan nan nan nan nan nan nan nan nan nan nan
nan nan nan nan nan nan nan nan nan nan nan nan nan nan nan nan nan nan nan nan nan nan nan nan nan nan nan nan nan nan nan nan nan nan nan nan nan nan nan nan nan nan nan nan nan nan nan nan nan nan nan nan nan nan nan nan nan nan nan nan nan nan nan nan nan nan nan nan nan nan nan nan nan nan nan nan nan nan nan nan nan nan nan nan nan nan
nan nan nan nan nan nan nan nan nan nan nan nan nan nan nan nan nan nan nan nan nan nan nan nan nan nan nan nan nan nan nan nan nan nan nan nan nan nan nan nan nan nan nan nan nan nan nan nan nan nan nan nan nan nan nan nan nan nan nan nan nan nan nan nan nan nan nan nan nan nan nan nan nan nan nan nan nan nan nan nan nan nan nan nan nan nan
nan nan nan nan nan nan nan nan nan nan nan nan nan nan nan nan nan nan nan nan nan nan nan nan nan nan nan nan nan nan nan nan nan nan nan nan nan nan nan nan nan nan nan nan nan nan nan nan nan nan nan nan nan nan nan nan nan nan nan nan nan nan nan nan nan nan nan nan nan nan nan nan nan nan nan nan nan nan nan nan nan nan nan nan nan nan
nan nan nan nan nan nan nan nan nan nan nan nan nan nan nan nan nan nan nan nan nan nan nan nan nan nan nan nan nan nan nan nan nan nan nan nan nan nan nan nan nan nan nan -0 -0 nan nan -0 -0 -0 -0 -0 nan nan nan nan nan nan nan nan nan nan nan nan nan nan nan nan nan nan nan nan nan nan nan nan nan nan nan nan nan nan nan nan nan nan
nan nan nan nan nan nan nan nan nan nan nan nan nan nan nan nan nan nan nan nan nan nan nan nan nan nan nan nan nan nan nan nan nan nan nan nan nan nan nan nan nan nan nan nan nan nan nan nan nan nan -1 -0 -0 -0 nan nan nan nan nan nan nan nan nan nan nan nan nan nan nan nan nan nan nan nan nan nan nan nan nan nan nan nan nan nan nan nan
Wind_Speed
2 2 2 2 3 2 1 2 2 3 2 2 2 2 3 3 3 4 4 4 4 4 4 4 4 4 6 7 8 8 8 8 8 8 8 8 7 7 6 6 6 6 6 5 5 5 5 4 4 4 4 4 4 3 3 3 3 4 4 4 4 4 4 4 5 5 5 5 5 5 5 5 5 5 5 4 4 4 4 4 5 5 5 5 6 6
2 2 2 2 2 2 2 2 2 3 3 2 2 2 3 3 3 2 3 3 3 3 3 3 4 4 4 5 5 6 6 7 7 7 7 6 6 5 5 5 5 5 5 5 5 4 4 4 4 4 4 4 4 4 4 4 4 4 4 4 4 4 4 5 5 5 5 5 5 5 5 5 5 5 5 5 5 5 5 5 5 5 5 6 6 6
2 2 2 2 2 2 2 2 2 2 3 2 2 2 3 3 2 2 2 2 2 3 2 2 3 3 3 2 3 4 5 5 6 6 5 5 5 4 4 4 4 4 4 4 4 4 4 4 4 4 4 4 4 4 4 4 4 4 4 4 4 4 4 4 4 4 5 5 5 5 5 5 5 5 5 5 5 5 5 6 6 6 6 6 6 7
3 2 3 2 2 2 2 2 2 2 3 3 3 3 3 2 2 1 1 1 2 2 2 2 2 2 2 1 1 2 3 4 4 4 4 4 4 4 4 4 4 4 4 4 4 4 4 4 4 4 4 4 4 4 4 4 4 4 4 4 4 4 4 4 4 4 4 4 4 4 4 5 5 5 5 6 6 6 6 6 6 6 6 6 7 7
2 2 2 2 2 1 1 2 2 2 3 2 2 2 2 1 1 1 1 1 1 1 1 1 1 1 1 0 0 1 2 3 3 3 3 3 3 3 4 4 4 4 4 4 4 4 4 4 4 4 4 4 4 4 4 4 4 4 3 3 3 3 3 2 3 3 3 3 4 4 4 5 5 5 6 6 6 6 7 6 6 6 6 6 7 7
2 2 2 2 1 1 1 1 2 2 2 2 1 1 1 1 1 1 1 1 1 1 1 1 1 1 1 1 1 1 1 2 2 2 2 2 2 3 3 3 4 4 4 4 4 4 4 4 4 4 4 4 4 4 4 4 3 3 2 2 2 2 2 2 2 3 3 3 4 4 5 5 5 6 6 7 7 7 7 7 7 7 7 7 7 7
2 2 2 2 1 1 1 1 2 2 1 1 1 1 1 1 1 1 1 1 0 0 0 1 1 2 2 2 2 2 1 1 1 1 1 1 2 2 3 3 3 3 3 3 3 3 3 4 4 4 4 4 4 3 3 3 2 2 1 1 1 1 2 2 3 3 4 4 5 5 6 6 6 7 7 7 7 7 7 7 7 7 7 7 7 7
3 2 2 2 2 1 1 1 1 2 2 1 1 1 1 1 1 1 1 1 1 1 1 1 1 2 2 3 3 3 2 2 2 2 1 1 0 1 2 2 3 3 3 3 3 3 3 3 3 3 3 3 3 2 2 1 1 0 0 1 2 2 3 4 4 5 5 6 6 6 7 7 7 7 7 8 8 8 8 8 8 7 7 7 7 7
4 3 2 2 2 2 1 1 1 1 1 2 2 1 1 0 1 1 2 1 1 1 1 1 1 1 2 3 3 3 2 1 1 1 1 1 1 0 0 1 2 2 3 3 3 2 2 2 2 2 2 2 2 2 2 2 2 2 2 3 3 4 5 5 6 6 7 7 7 8 8 8 8 8 8 8 8 8 8 8 8 7 7 7 6 6
3 3 3 2 2 2 2 1 1 1 1 2 2 2 2 2 1 1 0 1 1 1 1 1 1 1 1 2 3 2 2 1 1 1 3 2 2 1 1 0 1 1 2 2 2 2 2 2 2 3 3 3 3 3 3 3 3 4 4 4 5 5 6 6 6 7 7 8 8 8 8 8 8 8 8 8 8 7 7 7 7 7 7 6 6 6
3 3 3 2 2 2 2 2 1 1 1 2 2 1 1 1 2 2 2 1 1 1 1 1 1 1 0 1 2 2 2 2 2 2 1 1 2 2 2 1 0 1 2 2 2 2 3 3 3 4 4 4 5 5 5 5 5 5 5 5 5 5 6 6 6 7 7 8 8 8 8 8 8 8 8 8 7 7 7 7 6 6 6 6 6 6
3 2 2 2 2 2 2 1 1 1 2 2 1 0 1 0 1 3 3 3 2 1 0 1 1 1 0 0 1 1 2 2 2 2 2 2 2 1 1 1 1 1 1 1 2 2 3 4 4 4 4 5 5 5 5 5 5 5 5 5 5 5 5 5 6 6 7 7 8 8 8 7 7 7 7 7 7 6 6 6 6 6 6 5 5 5
2 2 2 2 2 2 2 1 1 1 1 2 2 2 2 2 1 2 3 3 2 1 1 0 1 1 1 1 1 1 1 1 1 1 2 2 2 2 2 1 1 2 2 2 2 3 3 3 3 4 3 3 3 4 4 4 4 5 5 5 5 5 5 5 6 6 7 7 7 7 7 6 6 6 6 6 6 6 6 5 5 5 5 5 5 5
3 2 2 2 2 2 2 2 2 2 2 2 3 3 2 1 1 2 2 1 0 0 1 1 1 1 2 1 1 0 1 1 1 1 2 2 1 1 1 0 1 1 1 1 2 2 2 2 3 3 4 3 3 3 3 3 4 4 4 4 4 5 5 6 6 6 7 7 6 6 6 5 5 5 5 5 5 5 5 5 5 5 5 5 5 5
3 3 3 3 2 2 2 2 2 2 3 2 2 1 1 1 1 2 2 2 1 1 1 2 2 2 2 2 1 0 1 1 2 1 1 2 1 1 1 0 0 1 1 1 1 2 2 1 1 1 2 2 2 2 3 2 3 4 4 5 5 5 5 6 6 6 6 6 6 5 5 5 4 4 4 4 4 4 4 4 4 4 4 5 5 5
3 3 4 4 3 3 2 2 2 2 2 1 1 1 2 1 1 2 3 2 1 1 2 2 2 2 3 2 1 0 1 2 2 1 1 2 2 1 1 1 0 1 1 1 1 2 1 1 0 1 1 2 3 4 5 5 5 5 5 5 5 5 5 6 6 6 6 6 5 5 4 4 4 4 4 4 4 4 3 4 4 4 4 5 5 5
3 3 3 3 3 2 1 1 2 2 2 1 1 1 2 2 2 2 3 2 2 2 2 2 1 0 2 2 2 1 1 2 2 2 1 1 2 2 0 1 1 1 1 1 1 2 1 1 1 1 2 3 5 6 6 6 6 6 6 6 6 6 6 6 6 6 6 6 5 5 4 4 4 4 4 4 3 3 3 4 4 4 5 5 5 5
3 3 3 3 3 3 2 1 1 1 2 2 1 1 1 1 1 2 2 2 2 2 2 2 2 2 1 1 2 2 0 2 2 2 2 1 2 2 1 1 1 1 1 2 2 2 1 1 1 2 3 5 6 6 6 6 6 6 6 6 6 6 6 6 6 6 6 6 6 5 5 4 4 4 4 4 4 4 4 4 5 5 5 5 5 5
3 2 3 3 3 2 2 2 2 2 3 3 2 2 1 1 1 1 2 2 2 2 2 2 2 2 2 2 2 2 0 2 3 3 2 1 2 2 2 1 1 0 1 2 2 2 2 2 2 4 5 6 6 6 6 6 6 6 6 6 6 6 6 6 6 6 7 7 6 6 5 5 5 4 4 4 4 5 5 5 5 6 6 6 6 6
3 2 3 3 3 3 2 2 2 3 4 4 4 3 2 1 1 1 1 1 1 1 2 2 2 2 2 2 2 2 0 2 3 3 1 1 2 2 2 1 1 0 1 2 2 2 2 2 2 3 5 6 6 6 6 6 6 6 6 6 6 6 6 6 6 7 7 7 7 6 6 6 5 5 5 5 5 5 6 6 6 6 6 6 6 6
3 3 3 3 3 3 3 2 3 3 4 4 4 4 3 2 2 1 1 1 1 1 2 2 2 2 2 2 2 2 1 2 3 3 1 1 2 2 1 1 1 0 1 2 2 2 1 1 2 2 4 5 6 6 7 7 7 6 6 6 5 5 6 6 7 7 7 7 7 7 6 6 6 6 6 6 6 6 6 6 6 6 6 6 6 7
4 3 3 3 3 4 4 3 3 3 4 5 5 4 3 3 2 2 1 1 2 2 2 2 2 2 2 2 2 1 1 2 3 3 2 1 2 3 2 1 1 1 1 2 2 2 1 1 2 3 4 5 6 7 7 7 7 6 5 5 5 5 6 6 7 7 7 7 7 7 7 7 7 6 6 6 6 6 6 6 6 7 7 7 7 7
4 3 3 3 3 3 3 3 3 2 3 4 4 4 4 4 4 4 3 3 3 3 2 1 1 0 0 1 1 1 0 1 2 3 3 0 2 3 2 0 1 0 2 2 2 2 2 2 2 3 4 6 7 7 7 6 6 5 5 4 5 5 6 6 6 6 7 7 6 6 6 6 6 6 6 6 6 6 6 6 6 6 6 7 7 7
4 4 3 3 3 3 4 4 3 2 2 3 3 3 3 3 3 3 3 3 3 3 2 1 2 2 2 1 2 2 1 0 2 2 3 1 2 3 2 0 0 0 2 2 2 2 2 2 2 2 3 5 6 6 6 5 4 4 4 4 5 5 5 5 5 5 5 5 5 5 5 5 5 5 5 5 5 5 5 6 6 6 6 6 7 7
5 4 4 4 5 5 5 5 5 4 4 3 3 3 3 4 4 4 3 3 3 3 3 3 3 2 2 2 2 2 2 0 1 2 3 1 2 2 2 0 0 1 2 2 2 1 1 2 2 2 2 4 5 6 5 3 3 3 3 4 4 4 4 4 4 4 4 4 4 4 4 4 5 5 5 5 5 5 5 6 6 6 6 7 7 7
6 7 7 8 9 10 10 9 9 8 8 6 5 4 4 4 4 4 3 3 3 3 4 3 2 1 2 2 2 2 2 1 1 2 3 2 1 2 2 1 1 1 2 2 2 1 1 2 2 2 2 3 4 4 4 3 3 3 3 3 4 4 4 3 3 3 3 3 3 4 4 4 5 5 5 5 6 6 6 6 7 7 7 7 7 7
10 11 11 11 11 11 11 11 11 11 10 9 7 6 4 4 4 3 2 1 2 3 3 2 0 1 2 2 2 2 2 1 0 1 2 2 1 1 2 1 0 0 2 2 2 1 1 1 2 2 2 2 3 4 4 3 3 3 3 3 3 3 3 3 3 3 4 4 4 4 5 5 5 6 6 6 7 7 7 7 7 8 8 7 6 5
11 11 10 10 10 10 9 9 10 10 10 9 9 8 6 5 4 3 1 1 2 3 3 2 2 1 1 2 2 2 2 1 1 1 2 2 1 1 2 1 0 0 1 2 2 2 2 2 2 2 2 3 3 3 4 4 4 4 4 4 4 4 4 4 4 5 5 5 5 5 5 6 6 6 6 7 7 7 7 8 8 8 7 5 2 1
8 8 9 8 8 8 7 6 7 7 8 8 7 7 5 4 4 3 3 3 3 3 2 2 2 2 2 2 2 2 2 2 2 1 3 2 1 1 2 1 0 0 0 1 2 2 3 2 2 2 2 3 3 3 3 4 4 4 4 5 5 5 5 5 5 5 6 6 6 6 6 6 6 6 6 7 7 7 8 8 8 7 4 2 0 0
5 5 5 5 6 6 5 4 3 4 5 5 5 5 5 4 3 4 3 3 4 3 3 2 2 2 1 0 1 2 2 3 2 2 3 2 1 1 1 0 0 0 1 1 2 2 3 3 2 2 2 2 2 2 2 2 2 3 3 4 5 5 6 6 6 6 6 6 6 5 5 5 6 6 6 6 7 7 7 8 7 4 1 1 1 1
3 3 2 3 3 4 3 3 3 3 2 2 3 3 3 3 3 3 3 4 4 4 3 3 3 2 2 1 1 1 2 3 2 1 3 3 1 1 1 0 0 0 1 2 1 1 2 3 3 2 2 2 2 2 2 2 2 1 1 2 3 4 6 6 6 6 5 5 5 5 5 6 6 6 6 6 6 7 7 8 6 4 1 1 1 1
1 2 1 1 2 2 2 2 2 2 2 2 2 2 2 3 3 3 3 4 4 4 4 3 3 2 2 2 2 2 2 3 2 2 3 2 1 1 1 1 0 0 0 2 2 2 1 2 2 3 2 2 2 2 2 2 1 1 1 1 1 3 5 5 4 4 4 4 5 5 6 6 6 6 7 7 7 7 7 8 7 4 1 1 1 2
1 1 1 2 2 2 2 2 2 1 1 1 1 1 1 2 2 3 3 3 4 4 4 4 3 2 2 2 2 2 3 3 3 3 4 3 1 1 1 1 1 1 1 1 2 2 2 1 2 2 2 2 2 2 2 2 1 1 0 0 1 2 4 3 2 2 2 2 3 4 5 6 6 7 7 7 8 8 8 8 7 6 3 1 2 2
2 1 1 2 2 2 2 2 2 1 1 0 0 0 1 1 2 2 3 3 3 4 4 4 4 3 2 2 2 2 3 3 3 3 4 3 2 1 1 1 1 1 1 1 1 1 0 1 1 1 2 2 2 2 2 2 1 1 0 0 1 2 2 2 2 1 1 1 2 2 4 4 5 6 7 7 8 8 8 8 8 8 6 3 2 2
2 1 1 1 1 1 1 1 1 1 1 1 1 1 1 1 2 2 2 3 3 3 3 4 4 4 4 3 2 2 3 3 3 1 3 3 3 2 2 2 2 2 2 1 1 0 0 1 1 1 1 2 2 2 2 2 2 1 1 1 1 1 1 1 1 1 2 2 2 2 2 2 3 4 5 6 7 8 9 9 9 9 8 7 5 3
2 1 0 0 0 0 1 1 1 1 2 2 2 2 1 2 2 2 2 2 3 3 3 3 3 4 4 4 4 3 3 3 2 0 2 3 3 2 2 2 2 2 3 2 1 1 1 1 1 1 1 1 2 2 2 2 2 1 1 1 1 1 1 1 1 1 1 1 2 2 2 2 2 3 4 6 8 9 9 9 9 9 9 9 8 6
1 1 1 1 1 1 1 1 1 2 2 2 2 2 2 2 2 2 1 2 2 2 2 2 2 2 3 3 3 3 3 2 1 0 1 2 3 3 2 2 2 3 3 3 2 2 1 0 1 1 1 1 2 2 2 2 2 2 2 1 1 1 2 1 1 1 1 1 2 2 2 2 2 3 4 7 7 8 8 9 9 9 9 9 10 9
1 1 1 1 1 1 1 1 2 2 3 3 3 3 2 2 2 1 1 1 2 2 2 2 2 2 3 3 3 3 2 2 2 1 2 2 3 3 2 1 1 2 2 3 3 3 2 1 0 1 2 2 3 3 2 2 2 2 2 2 2 2 2 1 1 1 1 2 2 3 3 2 2 2 3 4 3 3 4 4 5 6 8 8 9 9
1 2 2 2 2 2 2 2 3 3 3 3 3 2 2 2 1 1 1 1 1 1 2 2 2 2 2 2 3 3 3 3 3 3 3 3 3 2 2 2 1 2 2 2 2 3 3 2 2 2 2 2 3 3 2 1 1 2 2 3 2 2 2 1 1 1 1 2 2 3 3 2 2 1 2 1 1 1 2 2 3 3 3 3 4 6
2 2 2 2 2 3 3 3 3 2 2 2 2 2 2 2 1 1 1 1 1 1 1 1 0 1 1 2 2 3 3 3 3 3 3 3 3 3 3 3 2 2 2 2 2 3 3 3 3 3 3 2 2 2 2 2 2 2 2 3 3 2 2 1 1 2 2 2 2 3 3 2 2 2 2 2 2 2 2 2 2 2 2 1 1 2
2 2 2 2 2 2 3 3 2 1 1 2 2 2 2 1 1 1 1 1 1 1 1 1 1 2 2 2 2 2 3 3 4 4 3 4 4 4 3 3 3 3 3 2 2 2 3 3 3 3 3 3 3 3 4 3 3 3 3 3 3 3 3 3 3 2 2 2 2 2 2 2 2 2 2 3 3 3 3 3 2 2 2 2 2 2
4 3 3 2 2 2 2 1 1 1 2 2 2 2 2 2 2 1 1 1 1 1 1 1 1 2 3 3 3 3 3 4 4 5 5 5 5 5 4 4 4 3 3 2 2 2 3 3 3 3 4 3 3 3 4 4 4 3 3 3 3 4 5 5 3 1 1 2 2 2 2 2 2 2 2 3 3 3 3 3 3 4 3 3 3 3
4 3 3 2 2 1 1 1 1 1 1 2 1 2 2 2 2 2 2 1 1 1 0 1 1 0 1 3 3 3 3 3 4 5 5 6 6 6 5 5 4 4 4 3 3 3 3 4 4 4 4 3 3 4 5 4 4 3 3 3 2 2 2 3 2 1 1 1 1 1 2 2 3 3 3 3 3 2 2 3 5 6 5 3 3 3
3 3 2 1 1 0 1 1 1 1 2 2 2 2 1 2 2 3 3 2 1 1 1 1 1 1 1 2 3 3 3 3 3 3 4 6 6 6 6 6 5 5 5 4 3 3 2 3 4 4 3 3 3 4 5 4 4 3 3 3 3 3 3 3 2 2 2 2 2 2 2 3 3 3 3 3 3 2 2 2 3 3 4 3 3 3
2 1 1 1 1 1 1 1 2 2 2 2 2 2 2 2 2 3 3 2 1 1 1 1 1 1 1 2 2 2 2 2 2 2 3 4 6 7 6 6 5 5 5 5 4 4 3 3 3 3 2 3 3 4 5 5 4 4 4 4 4 4 5 4 3 3 3 3 4 4 3 3 3 3 4 4 3 3 2 2 3 3 3 3 3 3
1 1 1 1 1 2 2 2 2 2 2 2 2 2 2 2 2 2 3 2 2 2 1 2 1 1 1 2 1 1 2 2 3 3 2 2 2 3 4 5 5 5 5 5 4 4 4 4 3 2 1 2 3 5 5 5 5 4 4 4 4 4 4 4 4 4 4 4 4 4 3 2 2 3 4 4 4 4 3 3 3 4 4 4 4 4
2 2 2 2 2 2 2 2 2 2 2 2 2 2 2 2 2 2 2 2 2 2 2 1 1 2 2 2 1 1 1 2 2 3 2 2 2 1 1 3 4 4 4 4 4 4 4 4 3 3 2 3 4 5 5 5 4 4 4 3 3 3 4 4 4 3 3 3 3 3 2 1 2 2 3 4 4 4 3 3 3 4 4 4 4 4
3 3 3 2 2 2 2 2 2 2 3 2 2 2 2 3 3 3 2 2 2 2 2 2 2 2 3 2 2 2 2 2 2 2 2 2 2 1 1 1 2 2 3 3 4 4 4 4 4 4 4 4 5 5 5 4 4 4 4 3 3 3 4 4 4 3 3 3 3 3 2 2 2 3 4 4 4 4 3 3 3 3 4 4 4 4
4 4 4 3 3 3 3 3 3 3 3 3 2 2 2 3 4 5 3 3 3 3 3 3 3 3 3 3 3 3 3 3 3 2 2 2 1 1 1 1 2 2 2 2 3 4 4 5 6 7 7 7 7 6 6 5 4 4 3 3 3 4 4 4 4 3 3 3 3 3 3 3 3 4 4 4 4 5 4 4 3 4 4 4 4 4
4 4 4 4 4 4 4 4 4 4 4 4 3 3 2 2 3 3 3 3 3 3 4 4 4 4 4 3 3 3 3 3 2 2 2 1 1 1 1 2 2 2 2 2 2 2 3 4 6 8 10 11 10 9 7 6 4 3 3 3 3 3 4 4 4 3 3 3 3 3 3 3 4 4 3 4 5 5 5 4 4 3 3 3 4 4
4 4 4 4 4 4 4 4 4 4 4 4 4 3 3 2 2 3 3 3 3 4 4 4 4 4 4 4 4 4 4 3 3 3 2 1 1 1 2 3 3 3 2 2 1 1 1 2 3 4 7 12 14 13 8 6 4 3 3 4 3 3 3 4 4 4 4 4 4 4 4 4 4 4 3 3 4 5 5 5 4 3 2 2 3 3
Wind_Direction
126 129 126 114 107 102 103 119 120 116 107 95 89 85 81 76 71 70 76 80 80 77 71 60 53 56 70 87 96 102 107 109 109 109 109 109 111 113 117 118 121 122 123 125 126 128 129 128 127 126 124 123 121 119 117 114 108 104 98 93 87 81 74 67 62 59 58 55 51 45 39 31 23 14 4 353 344 336 330 328 327 327 326 326 325 324
127 125 126 113 107 104 102 108 118 122 120 112 105 100 93 87 79 72 71 79 82 84 82 74 66 62 62 78 95 107 113 114 113 112 112 114 118 122 127 130 132 133 135 136 138 140 141 142 141 140 138 137 136 133 129 122 113 105 97 90 82 75 68 62 56 52 49 45 41 36 30 23 14 4 353 342 334 327 324 324 325 325 326 324 323 321
142 136 139 124 115 112 113 107 108 114 119 117 112 105 97 93 90 87 82 89 91 93 93 90 84 76 67 64 94 115 119 119 118 118 120 126 132 138 143 146 148 149 149 151 153 155 157 158 158 156 155 152 149 144 138 127 118 108 98 89 81 73 67 60 53 47 41 36 30 23 17 8 360 350 339 331 325 322 320 321 321 321 321 319 318 316
145 142 146 129 115 113 120 121 114 106 103 102 100 96 92 95 98 99 88 94 98 98 93 85 86 87 84 57 90 129 131 129 128 130 137 145 152 157 161 164 165 167 168 169 171 173 176 176 175 172 168 163 158 152 142 131 120 110 100 91 82 74 66 58 49 40 32 24 16 7 359 350 342 334 326 321 317 315 314 314 314 313 312 311 310 309
147 142 138 123 111 106 110 117 112 102 89 85 85 88 90 100 104 81 45 53 66 78 71 48 48 59 81 27 275 199 149 140 140 147 160 166 171 175 178 180 182 184 186 187 189 190 191 189 186 182 176 169 161 153 141 130 121 111 101 92 81 69 58 45 32 21 11 2 354 345 337 330 324 318 314 311 308 306 305 304 303 303 302 303 303 303
147 137 127 117 114 116 110 114 111 105 87 74 69 69 71 76 69 57 42 46 54 64 55 22 11 6 7 329 302 272 171 142 142 151 166 172 179 185 190 191 193 195 197 199 199 199 196 193 188 182 174 165 157 148 138 128 119 110 100 86 69 47 25 6 354 346 338 331 324 319 315 310 307 304 302 300 298 296 295 294 293 292 293 294 296 297
139 128 111 107 107 111 111 124 127 125 115 103 74 43 22 22 29 37 40 57 73 89 71 15 0 355 353 341 336 337 6 47 72 93 133 158 175 187 193 195 196 196 196 197 196 194 189 184 178 171 164 157 151 144 136 130 122 111 95 59 9 342 327 320 317 314 310 306 304 302 299 296 294 292 290 290 289 288 287 286 285 285 285 287 289 292
137 129 110 109 107 106 108 126 136 137 130 125 116 90 11 355 358 5 10 22 33 52 90 49 10 355 349 348 351 358 11 25 27 29 38 45 68 182 191 189 188 185 183 182 180 176 171 167 165 161 156 154 155 155 152 156 161 188 283 298 301 301 301 301 301 300 300 298 296 295 292 290 287 285 283 282 281 281 281 280 280 280 281 283 286 289
138 137 130 126 124 124 125 137 145 138 123 127 133 140 149 152 347 358 8 11 13 26 82 96 68 359 338 344 351 358 8 32 57 78 90 45 28 15 190 174 173 172 169 166 165 164 162 166 169 173 175 185 195 204 214 228 246 262 275 282 287 291 294 296 298 299 299 298 297 295 292 289 285 283 280 278 276 275 275 275 275 277 279 282 286 289
127 131 132 131 131 133 137 151 163 147 85 106 120 135 145 149 144 116 43 339 337 352 35 95 113 113 332 339 344 351 0 12 59 123 142 145 150 153 121 108 142 166 172 173 175 179 187 199 209 216 223 229 235 241 246 252 259 267 273 280 285 289 293 296 299 301 302 301 299 297 293 289 285 282 278 275 273 271 270 270 271 273 276 279 283 286
121 124 124 128 131 133 135 148 158 133 73 83 77 72 93 136 144 149 163 201 269 325 359 47 96 121 134 329 335 346 7 14 14 18 69 146 153 149 138 136 150 206 200 205 211 218 227 235 239 242 245 248 251 254 256 261 265 269 274 279 283 288 293 298 301 303 304 302 300 297 293 289 285 281 277 273 270 268 266 265 266 268 271 274 277 281
130 130 123 130 134 135 130 122 101 78 81 92 88 45 290 213 149 148 162 178 191 217 316 4 27 52 114 261 322 343 15 30 17 0 354 356 4 15 39 28 347 327 304 302 292 278 266 266 264 262 263 262 262 261 261 262 265 268 271 276 281 287 293 298 301 302 301 300 297 295 292 288 284 280 275 272 268 266 264 262 262 263 266 268 270 273
125 124 117 122 131 136 134 118 99 92 115 147 167 188 209 207 165 138 145 161 172 182 172 63 16 354 336 334 345 358 27 42 24 359 352 350 353 359 15 10 354 349 354 345 337 325 311 307 303 301 307 302 291 281 273 270 269 270 272 275 281 287 293 296 298 298 297 294 292 290 289 286 282 278 274 270 267 265 262 260 259 259 260 262 263 265
125 121 118 126 139 150 150 144 148 158 175 183 186 188 189 173 143 120 111 121 132 348 66 72 40 346 323 329 335 357 70 69 40 13 355 333 328 342 39 21 350 353 12 0 338 328 339 352 348 342 345 349 337 316 302 287 279 275 274 277 282 287 291 294 294 293 291 288 286 284 282 280 277 274 270 267 265 262 259 256 255 255 255 255 255 256
142 139 141 152 164 172 174 165 167 177 193 194 186 167 125 105 99 101 104 111 97 20 41 46 23 350 321 307 304 324 92 84 68 37 348 315 303 298 109 105 14 357 21 0 300 298 328 0 359 343 345 346 328 304 295 279 272 270 271 274 278 283 287 289 289 288 286 284 282 281 278 276 273 270 266 264 262 260 258 255 254 253 251 251 250 252
149 147 154 164 174 182 185 171 170 177 193 191 165 138 124 125 117 110 113 127 121 78 67 64 34 349 319 307 306 347 85 89 89 81 0 306 301 299 118 111 70 338 341 297 270 274 296 307 295 282 291 293 291 289 287 276 269 267 269 271 275 279 283 284 284 283 281 280 278 276 275 273 270 266 263 261 260 259 257 255 253 252 252 251 251 252
146 148 155 162 174 188 198 172 166 169 171 163 147 133 133 141 136 127 121 124 112 94 94 108 112 96 298 307 312 328 74 98 101 95 61 304 296 297 102 117 136 273 296 280 266 263 271 275 272 265 261 273 282 286 285 279 275 272 271 273 275 278 280 280 279 277 276 275 273 270 268 266 264 262 259 258 257 256 254 252 250 251 252 253 254 256
147 150 150 162 176 186 186 176 171 164 150 143 131 113 95 108 119 121 121 121 118 116 119 127 141 161 180 261 282 287 22 111 103 89 53 312 296 299 0 97 133 198 272 274 269 259 251 247 246 253 265 279 283 284 283 279 277 276 276 276 277 277 277 275 273 272 271 270 268 265 262 260 258 256 255 253 251 249 247 246 245 246 249 251 253 256
159 156 152 165 173 177 172 177 173 165 156 155 143 124 92 65 71 86 98 114 126 134 138 143 157 170 170 208 246 260 237 115 100 87 64 307 294 306 356 47 82 137 272 269 263 256 249 249 254 262 273 284 287 286 283 281 279 278 277 277 277 275 274 272 270 268 267 267 265 262 259 256 254 252 251 249 247 245 245 244 245 245 246 248 250 252
165 170 175 166 158 154 164 191 188 177 168 156 138 122 115 98 75 71 85 100 116 128 131 139 161 185 194 221 248 263 244 97 90 87 92 272 282 299 349 38 69 120 281 270 262 254 248 257 272 282 287 289 290 289 286 284 282 280 278 277 276 274 273 271 268 266 265 264 263 261 259 256 253 251 249 248 246 246 245 245 245 246 247 248 250 251
164 188 205 174 153 149 167 194 200 186 164 139 121 111 116 112 102 97 114 110 106 105 107 130 166 190 189 207 234 247 205 104 100 99 100 292 288 292 322 44 77 93 278 275 269 263 258 262 269 276 283 293 294 292 290 287 284 282 280 278 278 277 276 273 270 267 264 262 261 260 259 257 255 252 250 249 247 246 246 246 247 247 248 249 250 252
158 183 207 184 162 154 158 174 183 177 152 132 127 129 137 133 137 148 164 140 135 140 150 177 191 193 181 201 227 238 154 120 120 121 105 358 297 289 299 31 82 95 263 270 275 278 278 266 260 263 274 293 297 297 294 290 287 285 283 283 282 280 278 275 271 266 263 260 258 257 257 256 256 254 252 250 248 247 247 248 248 249 249 250 251 252
138 155 176 177 165 148 137 144 156 162 151 136 139 146 156 152 156 164 173 162 156 156 162 180 187 185 187 249 280 301 44 122 121 117 109 139 271 277 291 357 71 68 256 262 272 286 298 277 263 262 275 296 300 299 296 291 289 287 286 286 284 281 278 272 267 262 258 255 254 254 255 256 256 256 255 253 252 251 251 251 251 252 252 253 253 254
118 128 141 147 141 129 119 128 138 144 136 124 124 132 142 140 142 145 154 143 136 132 117 73 40 19 357 336 323 319 315 106 109 108 111 168 244 263 279 355 60 283 263 259 266 285 304 287 273 266 275 297 300 298 295 292 290 289 289 286 283 279 274 268 263 257 252 251 251 252 255 258 260 261 261 261 260 259 259 259 259 259 259 260 260 260
117 124 130 133 130 126 123 126 128 127 118 110 108 109 111 107 103 97 89 87 86 83 71 56 40 10 341 341 328 310 295 321 107 114 120 157 244 267 274 229 157 232 265 270 273 284 299 289 285 286 292 298 300 299 293 287 285 287 288 286 282 277 272 267 261 255 252 253 254 257 261 266 269 271 272 272 271 270 270 268 268 267 267 267 267 267
126 131 135 134 132 129 127 127 125 123 119 116 114 113 108 99 88 75 59 56 63 70 70 62 41 333 318 325 310 294 289 312 92 119 128 137 219 276 280 244 172 210 269 281 286 293 292 288 294 300 309 304 304 301 290 279 278 284 288 286 282 277 273 270 267 265 261 263 266 268 270 274 276 277 277 277 275 274 273 272 271 271 271 271 271 272
129 132 134 133 133 132 132 130 128 125 123 124 124 123 114 98 86 77 66 67 86 92 94 101 116 292 313 308 287 278 286 301 287 135 128 120 135 269 276 267 197 220 275 285 285 285 288 291 297 302 307 306 311 309 292 285 285 288 292 288 283 278 274 272 271 270 268 270 271 273 274 275 277 277 277 277 276 276 275 274 273 273 273 273 274 277
124 127 128 129 129 130 131 130 130 129 128 128 126 122 112 102 102 116 177 167 121 104 109 130 157 200 258 263 269 275 290 278 244 187 127 109 124 249 264 272 247 156 276 290 295 305 320 310 302 300 301 304 311 311 300 299 299 299 297 290 283 278 273 270 269 269 269 270 271 273 275 276 278 278 279 278 278 277 276 276 275 275 275 276 279 312
106 111 112 113 111 109 106 109 117 125 130 130 127 122 111 112 127 154 185 157 125 111 122 146 163 177 203 247 278 295 298 269 238 182 121 107 133 250 261 288 1 80 27 328 329 333 338 321 305 296 298 304 309 310 306 312 313 311 304 294 287 282 277 275 273 272 273 274 275 276 278 279 280 281 281 280 279 279 278 277 277 276 276 274 251 129
65 77 84 84 80 73 66 64 75 100 125 131 130 124 114 120 137 153 160 140 128 126 142 157 166 169 170 228 335 323 298 274 243 167 121 117 159 252 268 314 330 31 97 55 14 347 331 317 304 294 294 305 307 305 302 314 319 318 311 302 295 288 280 277 277 278 280 281 282 282 283 284 285 285 285 284 282 281 280 279 277 275 249 140 138 161
41 49 45 39 36 35 37 38 34 38 63 83 94 102 110 121 132 140 140 136 135 138 150 160 167 165 151 130 124 270 277 272 251 166 122 131 171 225 199 190 271 271 118 105 90 12 318 309 308 310 314 315 309 301 294 296 300 305 311 310 301 288 277 275 276 279 283 285 287 288 289 290 291 292 292 291 289 288 286 284 281 277 171 144 158 200
72 69 59 23 13 16 27 32 31 27 29 38 50 70 101 121 132 138 142 144 143 144 149 157 162 165 159 159 173 201 241 260 241 187 132 132 154 195 159 149 166 320 63 110 122 139 206 280 297 309 323 318 310 302 293 285 280 278 295 312 295 281 273 274 276 279 283 286 288 290 292 294 296 297 298 298 297 295 293 291 288 282 236 170 184 214
80 65 46 26 20 21 26 27 26 25 25 30 39 64 97 124 138 144 149 151 148 146 147 153 158 163 166 176 193 215 242 256 234 198 155 132 127 151 143 130 120 76 35 70 103 131 164 224 273 298 312 308 304 299 295 290 284 280 348 296 285 282 282 290 293 290 285 288 290 291 293 294 295 296 297 298 297 297 296 294 292 288 274 206 191 210
82 68 45 29 20 17 16 15 12 3 336 301 251 184 145 144 146 150 156 158 156 153 152 156 160 165 167 182 217 248 264 264 246 208 157 133 128 141 140 138 135 123 86 68 67 82 151 230 268 296 308 306 304 297 290 291 300 321 35 228 261 281 298 321 328 322 308 312 306 300 297 296 293 292 291 291 292 292 293 292 291 289 285 261 227 211
87 77 51 33 20 9 356 350 341 318 281 260 246 221 183 171 166 164 164 166 166 164 161 163 165 167 169 176 196 231 255 260 260 231 138 133 133 135 137 166 165 148 125 125 116 105 272 269 265 276 309 314 310 301 287 284 296 310 302 230 231 252 279 305 315 315 316 321 310 298 293 292 288 284 282 281 282 283 284 286 286 286 287 282 274 256
102 103 52 41 33 247 266 272 269 259 253 249 243 228 204 188 181 176 171 167 168 168 169 169 170 170 170 172 181 199 227 243 255 253 115 131 133 134 143 184 175 155 137 142 145 148 166 261 275 283 311 305 301 297 291 295 308 321 318 296 267 256 253 244 235 245 288 294 287 280 277 276 274 272 270 274 276 278 281 283 284 285 287 287 286 281
123 164 231 219 203 202 222 236 238 235 235 237 234 224 207 196 188 182 171 159 157 159 163 168 173 178 180 175 180 190 207 215 218 157 106 125 128 131 145 177 175 161 147 152 154 152 140 139 317 314 293 247 253 269 287 309 327 335 323 309 296 287 277 255 219 195 212 247 259 264 265 264 265 267 270 274 277 281 285 285 285 285 285 286 287 286
151 200 235 227 209 200 208 223 228 225 221 219 214 206 194 184 177 171 156 144 144 148 154 159 172 188 194 189 188 191 193 188 180 162 136 131 127 126 136 153 175 178 164 159 153 145 136 140 201 277 274 252 250 256 273 300 314 311 297 290 284 280 277 270 242 210 213 245 262 269 269 264 263 267 276 279 287 295 295 293 289 285 283 284 284 285
187 214 233 227 212 201 202 214 219 219 211 203 191 175 155 141 131 120 112 130 141 151 157 161 175 191 200 200 203 203 200 190 180 170 156 146 138 137 140 151 176 193 182 158 145 140 143 157 178 204 236 256 265 270 277 279 280 284 295 303 302 291 273 265 253 241 237 257 274 282 282 275 265 257 263 269 268 264 267 273 271 268 268 278 284 285
203 218 232 227 215 204 204 212 214 211 192 166 140 121 112 105 94 77 64 75 94 114 136 147 180 227 244 241 237 231 222 204 188 177 165 164 161 158 158 168 176 176 166 152 143 145 151 169 186 200 210 232 254 269 277 271 264 277 309 316 311 300 287 278 264 254 248 249 259 269 275 270 257 244 239 233 226 223 225 232 238 236 218 196 223 276
204 218 232 234 226 218 217 217 210 186 149 124 109 100 100 103 95 75 42 29 21 18 31 32 5 337 320 303 282 262 246 234 217 202 186 183 180 178 178 185 183 175 161 162 163 166 171 188 208 224 230 238 255 267 270 265 266 272 284 283 281 282 287 286 280 271 263 257 252 254 262 270 270 261 248 243 234 227 221 217 221 225 215 181 174 181
211 216 222 223 226 229 235 207 138 122 121 110 111 120 139 136 130 118 88 31 352 343 18 39 12 332 317 307 298 285 265 248 234 223 210 198 192 190 192 196 194 186 177 184 200 211 210 213 223 233 237 241 253 265 270 267 264 261 257 262 280 295 300 295 293 295 287 280 277 275 277 282 282 277 271 265 257 246 232 220 220 224 223 203 190 189
216 216 215 213 213 208 169 111 114 121 121 116 133 157 170 154 144 139 136 151 204 244 283 106 118 231 285 290 294 295 287 266 248 234 223 209 200 196 200 201 198 191 184 193 213 229 230 226 230 234 232 230 238 252 267 269 267 257 243 241 258 291 301 296 298 306 304 292 291 293 292 287 282 278 276 273 265 254 241 238 239 238 233 217 206 206
216 217 215 211 194 139 101 124 146 154 150 156 171 188 194 169 150 143 140 156 177 188 147 106 100 107 255 269 278 287 293 291 281 263 242 225 213 204 202 200 197 191 184 190 202 216 228 232 235 234 227 224 231 244 257 262 263 258 246 230 220 221 236 260 281 304 314 303 298 293 286 287 288 290 290 282 272 259 243 237 242 247 245 230 219 219
195 197 198 176 147 137 156 180 181 173 167 174 184 193 195 178 162 153 152 159 167 169 151 119 104 92 269 266 272 284 296 304 309 304 285 250 231 218 203 196 192 190 189 196 199 201 204 222 230 232 221 219 229 239 250 255 259 260 254 242 234 232 238 249 263 278 286 288 288 285 282 288 296 301 297 289 280 268 251 242 244 249 253 246 237 234
166 170 177 163 163 173 189 189 181 173 176 190 198 201 193 177 167 162 164 163 165 167 162 137 138 168 238 257 273 293 305 310 314 318 321 303 269 230 202 192 189 190 193 202 204 204 203 208 212 215 224 237 242 244 245 247 252 258 259 253 249 250 256 259 259 259 260 268 273 277 280 292 299 295 286 283 278 270 256 238 233 237 243 244 242 240
181 185 188 180 181 188 198 184 174 174 189 204 212 211 195 172 165 166 174 170 167 163 160 147 164 195 225 235 243 256 280 293 300 306 313 319 319 298 208 192 190 190 191 199 205 210 216 214 210 209 223 245 253 254 250 244 244 248 253 253 253 255 259 260 256 251 245 250 257 265 275 295 291 280 274 276 275 271 262 244 232 228 231 235 238 239
194 194 194 188 187 191 197 186 181 184 197 209 216 216 203 183 179 179 181 177 175 173 174 175 197 217 233 236 233 231 242 258 269 279 290 296 298 290 223 181 183 189 196 206 214 220 226 225 221 220 223 236 247 253 255 246 241 241 243 245 247 251 257 258 256 250 241 242 243 244 239 246 255 262 269 275 276 274 269 261 247 237 230 231 233 236
196 196 197 195 196 201 206 197 192 193 202 209 215 218 216 204 199 196 187 178 176 181 190 200 211 224 237 241 240 240 243 249 253 257 261 266 269 254 182 165 169 181 200 219 227 233 237 235 231 227 225 229 238 247 254 249 243 237 236 238 239 244 253 258 257 252 243 241 238 234 225 231 239 247 256 268 274 277 275 270 259 247 235 230 229 232
201 201 200 200 204 209 211 203 200 201 206 208 211 213 216 214 209 202 190 182 182 189 199 204 211 221 235 240 241 241 241 243 246 247 246 244 235 201 167 165 171 181 199 220 230 238 246 246 240 234 228 226 229 235 245 247 244 239 236 237 235 237 245 255 256 252 244 242 241 238 235 239 242 246 250 262 271 277 279 275 267 254 240 232 231 233
209 208 205 206 210 213 213 207 204 205 208 208 209 209 209 209 208 204 195 191 194 201 208 208 212 219 231 239 241 239 237 236 239 242 242 232 211 184 172 169 173 179 189 206 220 234 250 267 267 254 239 227 223 222 230 233 235 235 239 237 231 226 231 243 249 249 245 244 244 242 240 242 244 245 244 255 268 277 281 280 275 266 254 244 240 242